TimeEST,TemperatureF,Dew PointF,Humidity,Sea Level PressureIn,VisibilityMPH,Wind Direction,Wind SpeedMPH,Gust SpeedMPH,PrecipitationIn,Events,Conditions,WindDirDegrees,DateUTC
12:15 AM,29.3,23.4,78,30.21,10.0,SW,10.4,-,N/A,,Clear,230,2012-12-12 05:15:00
12:35 AM,29.3,23.4,78,30.21,3.0,SW,9.2,-,N/A,Snow,Light Snow,230,2012-12-12 05:35:00
12:55 AM,29.1,23.4,79,30.21,4.0,SW,8.1,-,N/A,Snow,Light Snow,230,2012-12-12 05:55:00
1:15 AM,28.4,23.2,81,30.21,10.0,SW,6.9,-,N/A,,Clear,220,2012-12-12 06:15:00
1:35 AM,27.5,23.0,83,30.21,10.0,SW,6.9,-,N/A,,Clear,220,2012-12-12 06:35:00
1:55 AM,27.7,22.8,82,30.22,3.0,SW,9.2,-,N/A,Snow,Light Snow,220,2012-12-12 06:55:00
2:15 AM,27.9,22.8,81,30.22,4.0,SW,9.2,-,N/A,Snow,Light Snow,220,2012-12-12 07:15:00
2:35 AM,28.4,23.0,80,30.23,7.0,SW,8.1,-,N/A,,Clear,230,2012-12-12 07:35:00
2:55 AM,28.2,22.8,80,30.24,2.5,SW,6.9,-,N/A,Snow,Light Snow,230,2012-12-12 07:55:00
3:15 AM,27.3,22.1,81,30.25,3.0,SSW,5.8,-,N/A,Snow,Light Snow,210,2012-12-12 08:15:00
3:35 AM,26.4,22.1,84,30.26,2.5,SSW,5.8,-,N/A,Snow,Light Snow,210,2012-12-12 08:35:00
3:55 AM,26.1,21.9,84,30.26,7.0,SW,3.5,-,N/A,,Clear,220,2012-12-12 08:55:00
4:15 AM,26.1,22.1,85,30.26,3.0,SW,4.6,-,N/A,Snow,Light Snow,230,2012-12-12 09:15:00
4:35 AM,25.3,21.6,86,30.26,4.0,South,5.8,-,N/A,Snow,Light Snow,190,2012-12-12 09:35:00
4:55 AM,25.9,21.7,84,30.27,4.0,South,4.6,-,N/A,Snow,Light Snow,190,2012-12-12 09:55:00
5:15 AM,25.9,21.6,84,30.27,4.0,SSW,4.6,-,N/A,,Clear,200,2012-12-12 10:15:00
5:35 AM,25.2,21.2,85,30.28,3.0,SSW,4.6,-,N/A,Snow,Light Snow,200,2012-12-12 10:35:00
5:55 AM,25.2,21.2,85,30.28,10.0,SSW,4.6,-,N/A,,Clear,200,2012-12-12 10:55:00
6:15 AM,24.8,21.0,86,30.29,10.0,South,4.6,-,N/A,,Clear,190,2012-12-12 11:15:00
6:55 AM,24.6,21.0,86,30.30,4.0,South,3.5,-,N/A,,Clear,180,2012-12-12 11:55:00
7:15 AM,24.3,20.8,87,30.31,4.0,South,4.6,-,N/A,,Clear,190,2012-12-12 12:15:00
7:35 AM,24.3,21.0,87,30.31,3.0,South,5.8,-,N/A,Snow,Light Snow,180,2012-12-12 12:35:00
7:55 AM,24.6,21.2,87,30.32,4.0,South,6.9,-,N/A,Snow,Light Snow,190,2012-12-12 12:55:00
8:15 AM,24.8,21.2,86,30.32,3.0,South,6.9,-,N/A,Snow,Light Snow,190,2012-12-12 13:15:00
8:35 AM,25.2,21.2,85,30.32,7.0,South,8.1,-,N/A,,Clear,180,2012-12-12 13:35:00
8:55 AM,25.9,21.6,84,30.33,7.0,South,8.1,-,N/A,,Clear,180,2012-12-12 13:55:00
9:15 AM,26.8,22.1,83,30.33,7.0,South,8.1,-,N/A,,Clear,180,2012-12-12 14:15:00
9:35 AM,27.7,22.6,81,30.34,7.0,South,5.8,-,N/A,,Clear,190,2012-12-12 14:35:00
10:15 AM,30.0,23.9,78,30.35,7.0,SSW,5.8,-,N/A,,Clear,210,2012-12-12 15:15:00
10:35 AM,30.9,24.6,77,30.36,7.0,SW,5.8,-,N/A,,Clear,220,2012-12-12 15:35:00
10:55 AM,31.6,24.8,76,30.37,3.0,South,5.8,-,N/A,Snow,Light Snow,190,2012-12-12 15:55:00
11:15 AM,32.2,25.3,76,30.37,2.5,SSW,5.8,-,N/A,,Haze,210,2012-12-12 16:15:00
11:35 AM,32.9,26.1,76,30.37,4.0,SSW,5.8,-,N/A,,Haze,210,2012-12-12 16:35:00
11:55 AM,33.8,26.1,73,30.37,2.0,SSW,5.8,-,N/A,Snow,Light Snow,200,2012-12-12 16:55:00
12:15 PM,34.9,27.1,73,30.36,1.8,SSW,5.8,-,N/A,Snow,Light Snow,200,2012-12-12 17:15:00
12:35 PM,35.8,27.5,72,30.36,5.0,SSW,6.9,-,N/A,Snow,Light Snow,200,2012-12-12 17:35:00
12:55 PM,36.7,27.9,70,30.36,2.0,South,6.9,-,N/A,Snow,Light Snow,190,2012-12-12 17:55:00
1:15 PM,37.4,26.6,65,30.36,4.0,South,6.9,-,N/A,,Haze,190,2012-12-12 18:15:00
1:35 PM,38.1,26.6,63,30.35,4.0,SSW,8.1,-,N/A,,Haze,210,2012-12-12 18:35:00
1:55 PM,38.8,26.1,60,30.35,3.0,SSW,9.2,-,N/A,,Unknown,200,2012-12-12 18:55:00
2:15 PM,39.2,25.3,58,30.34,4.0,SSW,9.2,-,N/A,,Haze,210,2012-12-12 19:15:00
2:35 PM,39.4,25.9,58,30.34,10.0,SW,9.2,-,N/A,,Clear,220,2012-12-12 19:35:00
2:55 PM,39.7,25.9,58,30.34,1.8,SSW,8.1,-,N/A,,Unknown,200,2012-12-12 19:55:00
3:15 PM,39.9,25.5,56,30.33,2.0,SSW,8.1,-,N/A,,Unknown,200,2012-12-12 20:15:00
3:35 PM,39.9,25.7,57,30.33,5.0,SSW,6.9,-,N/A,,Haze,210,2012-12-12 20:35:00
3:55 PM,40.1,25.5,56,30.33,7.0,South,5.8,-,N/A,,Clear,190,2012-12-12 20:55:00
4:35 PM,39.6,25.0,56,30.33,2.5,South,5.8,-,N/A,,Unknown,180,2012-12-12 21:35:00
5:15 PM,37.9,25.9,62,30.33,3.0,South,4.6,-,N/A,Snow,Light Snow,190,2012-12-12 22:15:00
5:35 PM,36.3,26.2,67,30.33,3.0,South,4.6,-,N/A,Snow,Light Snow,180,2012-12-12 22:35:00
5:55 PM,35.6,26.4,69,30.34,3.0,South,4.6,-,N/A,Snow,Light Snow,170,2012-12-12 22:55:00
6:15 PM,34.7,26.2,71,30.34,4.0,South,5.8,-,N/A,Snow,Light Snow,170,2012-12-12 23:15:00
6:35 PM,33.8,25.5,72,30.34,3.0,South,5.8,-,N/A,Snow,Light Snow,180,2012-12-12 23:35:00
6:55 PM,33.3,25.3,73,30.34,2.5,South,5.8,-,N/A,Snow,Light Snow,170,2012-12-12 23:55:00
7:15 PM,33.1,25.0,72,30.34,3.0,SSE,4.6,-,N/A,Snow,Light Snow,160,2012-12-13 00:15:00
7:55 PM,31.8,24.8,75,30.35,3.0,SSE,4.6,-,N/A,Snow,Light Snow,160,2012-12-13 00:55:00
8:15 PM,32.2,24.6,74,30.35,3.0,South,5.8,-,N/A,Snow,Light Snow,170,2012-12-13 01:15:00
8:35 PM,32.4,24.8,74,30.35,4.0,South,5.8,-,N/A,,Haze,170,2012-12-13 01:35:00
8:55 PM,32.4,24.8,74,30.36,3.0,South,4.6,-,N/A,Snow,Light Snow,170,2012-12-13 01:55:00
9:15 PM,32.0,24.6,74,30.36,5.0,SSE,5.8,-,N/A,Snow,Light Snow,160,2012-12-13 02:15:00
9:35 PM,31.8,24.8,75,30.36,5.0,South,4.6,-,N/A,,Haze,170,2012-12-13 02:35:00
9:55 PM,31.8,24.6,75,30.36,5.0,South,4.6,-,N/A,Snow,Light Snow,180,2012-12-13 02:55:00
10:15 PM,31.5,24.6,76,30.37,10.0,South,4.6,-,N/A,,Clear,170,2012-12-13 03:15:00
10:35 PM,31.3,24.4,76,30.37,10.0,SSE,5.8,-,N/A,,Clear,150,2012-12-13 03:35:00
10:55 PM,31.1,24.3,76,30.37,4.0,SSE,4.6,-,N/A,Snow,Light Snow,160,2012-12-13 03:55:00
11:15 PM,30.7,24.1,76,30.37,10.0,SSE,5.8,-,N/A,,Clear,160,2012-12-13 04:15:00
11:35 PM,30.2,23.9,77,30.37,7.0,SSE,4.6,-,N/A,,Clear,160,2012-12-13 04:35:00
11:55 PM,29.7,23.7,79,30.36,7.0,SSE,5.8,-,N/A,Snow,Light Snow,160,2012-12-13 04:55:00